Regional Weather Roundup
Issued by NWS Goodland, KS

Home | Current Version | Previous Version | Text Only | Print | Product List | Glossary On
Versions: 1 2 3 4 5 6 7 8 9 10 11 12 13 14 15 16 17 18 19 20 21 22 23 24 25 26 27 28 29 30 31 32 33 34 35 36 37 38 39 40 41 42 43 44 45 46 47 48 49 50
366
ASUS43 KGLD 140408
RWRGLD

GOODLAND FORECAST AREA HOURLY WEATHER ROUNDUP
NATIONAL WEATHER SERVICE GOODLAND KS
900 PM MST SAT FEB 13 2016

...OFFICIAL OBSERVATIONS...

CITY           SKY/WX    TMP DP  RH WIND       PRES   REMARKS
GOODLAND KS    CLOUDY    32  27  81 S14       29.95R
HILL CITY KS   CLOUDY    29  20  69 SE6       29.99F
IMPERIAL NEB   CLOUDY    29  26  89 W7        30.01R
MCCOOK NEB     CLOUDY    26  21  81 S5        30.00R
AKRON CO       CLEAR     37  31  78 N32G43    30.02R
BURLINGTON CO  CLOUDY    34  29  82 SW14      29.96R
LIMON CO       CLOUDY    31  26  82 N5        29.99R
$$

...UNOFFICIAL OBSERVATIONS...

CITY           SKY/WX    TMP DP  RH WIND       PRES   REMARKS
COLBY KS       CLEAR     32  28  86 SW6       29.98R
GOVE KS          N/A     32  32 100 MISG        N/A
LENORA KS        N/A     28  32 100 MISG        N/A
NORTON KS      CLEAR     28  18  64 S3        30.00
SHARON SPRINGS   N/A     31  27  85 S12         N/A
KIT CARSON CO    N/A     28  25  88 MISG        N/A
YUMA CO          N/A     38  33  84 NW9         N/A
$$




USA.gov is the U.S. government's official web portal to all federal, state and local government web resources and services.